This is the latest recevied weather packets stored in our database for station/object N0MR. If no packets are shown the sender has not sent any weather packets the latest 10 day(s).
| Time | Temp. | Humidity | Pressure | Rain* | Wind** | Luminosity | Snow |
|---|---|---|---|---|---|---|---|
| 1777441932 | 3.33° C | 79% | 1016.6 hPa | 0 mm | - | - | - |
| 1777441331 | 3.89° C | 77% | 1016.7 hPa | 0 mm | - | - | - |
| 1777440734 | 3.89° C | 76% | 1016.7 hPa | 0 mm | - | - | - |
| 1777440133 | 3.89° C | 76% | 1016.7 hPa | 0 mm | - | - | - |
| 1777439533 | 3.89° C | 77% | 1016.7 hPa | 0 mm | - | - | - |
| 1777438932 | 3.89° C | 77% | 1016.7 hPa | 0 mm | - | - | - |
| 1777438333 | 4.44° C | 74% | 1016.7 hPa | 0 mm | - | - | - |
| 1777437732 | 4.44° C | 74% | 1016.7 hPa | 0 mm | - | - | - |
| 1777437134 | 4.44° C | 73% | 1016.4 hPa | 0 mm | - | - | - |
| 1777436532 | 4.44° C | 73% | 1016.4 hPa | 0 mm | - | - | - |
| 1777435958 | 4.44° C | 75% | 1016.5 hPa | 0 mm | - | - | - |
| 1777434732 | 5° C | 77% | 1016.4 hPa | 0 mm | - | - | - |
| 1777434135 | 5° C | 77% | 1016.4 hPa | 0 mm | - | - | - |
| 1777433538 | 5° C | 72% | 1016.5 hPa | 0 mm | - | - | - |
| 1777432933 | 5° C | 72% | 1016.5 hPa | 0 mm | - | - | - |
| 1777432335 | 5.56° C | 71% | 1016.4 hPa | 0 mm | - | - | - |
| 1777431733 | 5.56° C | 71% | 1016.4 hPa | 0 mm | - | - | - |
| 1777431133 | 5.56° C | 71% | 1016.3 hPa | 0 mm | - | - | - |
| 1777429932 | 5.56° C | 70% | 1016.1 hPa | 0 mm | - | - | - |
| 1777429333 | 5.56° C | 68% | 1015.8 hPa | 0 mm | - | - | - |
| 1777428734 | 5.56° C | 68% | 1015.8 hPa | 0 mm | - | - | - |
| 1777427533 | 6.11° C | 66% | 1015.6 hPa | 0 mm | - | - | - |
| 1777426934 | 6.11° C | 66% | 1015.3 hPa | 0 mm | - | - | - |
| 1777426334 | 6.11° C | 66% | 1015.3 hPa | 0 mm | - | - | - |
| 1777425733 | 6.11° C | 64% | 1015 hPa | 0 mm | - | - | - |
* Rain latest hour (hover to see other rain measurements)
** Current wind speed in m/s (hover to see current wind gust speed)